Location: Lone Wolf Observatory
(41.0360°N, 89.2260°W)
Time: 17:25:21
(UTC-05:00)

Amateur Radio Satellites - All Passes

Search period start: 29 March 2015 16:55
Search period end: 30 March 2015 16:55
Location: Lone Wolf Observatory, 41.0360°N, 89.2260°W

Satellite Date Start Highest point End Downlink Frequencies (MHz)
Time Altitude Azimuth
MOZHAYETS 4 29 Mar 17:13:50 17:18:10 38° 97° (E) 17:22:30
KKS-1 29 Mar 17:16:34 17:18:50 14° 296° (WNW) 17:20:54 437.445
PCSat 29 Mar 17:27:27 17:29:34 12° 324° (NW) 17:31:28 145.827
JAS-2 29 Mar 17:41:59 17:47:51 28° 271° (W) 17:54:01 435.910
CUTE-I 29 Mar 17:43:53 17:48:44 37° 69° (ENE) 17:53:40 437.470
Cubesat XI-IV 29 Mar 17:44:05 17:48:58 38° 69° (ENE) 17:53:55 437.490
BEESAT 2 29 Mar 17:51:42 17:52:20 10° 36° (NE) 17:53:05 435.950
AUBIESAT-1 29 Mar 18:03:45 18:08:13 37° 101° (E) 18:12:35 437.475
SO-50 29 Mar 18:16:46 18:20:07 21° 111° (ESE) 18:23:41 436.795
BEESAT 3 29 Mar 18:26:40 18:29:53 22° 45° (NE) 18:33:08 437.485
M-CUBED/EXP-1 PRIME 29 Mar 18:28:04 18:32:57 74° 107° (ESE) 18:37:43 437.505
GONETS M04 29 Mar 18:31:07 18:37:31 25° 82° (E) 18:44:16
RS-15 29 Mar 18:41:50 18:51:49 46° 111° (ESE) 19:02:06 29.354- 29.394
MOZHAYETS 4 29 Mar 18:51:35 18:55:12 22° 293° (WNW) 18:58:42
CUBESAT XI-V 29 Mar 19:01:22 19:05:43 39° 97° (E) 19:10:02 437.345
AIST 2 29 Mar 19:02:55 19:05:48 18° 42° (NE) 19:08:44 435.215
CUTE-I 29 Mar 19:24:16 19:28:54 28° 266° (W) 19:33:27 437.470
Cubesat XI-IV 29 Mar 19:24:33 19:29:10 28° 266° (W) 19:33:42 437.490
BEESAT 2 29 Mar 19:27:10 19:31:19 70° 56° (NE) 19:35:23 435.950
AUBIESAT-1 29 Mar 19:38:47 19:42:51 27° 297° (WNW) 19:46:46 437.475
GOMX 1 29 Mar 19:40:20 19:42:48 15° 67° (ENE) 19:45:22 467.674
CUTE 1.7 + AOD 2 29 Mar 19:41:09 19:42:50 12° 64° (ENE) 19:44:43 437.475
PRISM 29 Mar 19:45:02 19:49:14 87° 284° (WNW) 19:53:23 437.425
STRAND 1 29 Mar 19:53:24 19:58:31 69° 102° (ESE) 20:03:35 437.568
SO-50 29 Mar 19:55:53 20:00:22 47° 309° (NW) 20:05:01 436.795
BEESAT 3 29 Mar 20:04:15 20:08:06 39° 244° (WSW) 20:11:52 437.485
M-CUBED/EXP-1 PRIME 29 Mar 20:04:26 20:07:16 15° 302° (WNW) 20:09:55 437.505
AAUSAT CUBESAT 2 29 Mar 20:04:30 20:06:23 13° 65° (ENE) 20:08:28 437.432
SEEDS 29 Mar 20:08:29 20:11:33 20° 68° (ENE) 20:14:45 437.485
HO-68 29 Mar 20:11:49 20:18:37 50° 67° (ENE) 20:25:31 435.675
GONETS M04 29 Mar 20:24:59 20:33:39 69° 281° (W) 20:42:24
COMPASS 1 29 Mar 20:29:58 20:33:31 28° 70° (ENE) 20:37:11 437.405
BRITE-PL 29 Mar 20:30:38 20:35:23 82° 75° (ENE) 20:39:48 437.365/2234.400
Oscar 11 29 Mar 20:31:44 20:33:41 13° 64° (ENE) 20:35:50 145.826/435.025
CUBESAT XI-V 29 Mar 20:39:25 20:42:56 21° 293° (WNW) 20:46:18 437.345
AIST 2 29 Mar 20:40:36 20:44:48 57° 241° (WSW) 20:48:53 435.215
CINEMA 3 29 Mar 20:42:01 20:45:15 23° 69° (ENE) 20:48:33 145.822/145.860
UWE-3 29 Mar 20:48:22 20:49:48 12° 64° (ENE) 20:51:27 435.000/436.395/437.385
DANDE 29 Mar 20:50:46 20:53:00 19° 97° (E) 20:55:04 436.750
CUBEBUG 2 29 Mar 20:52:50 20:55:21 16° 67° (ENE) 20:58:00 437.445
RS-15 29 Mar 20:53:25 21:04:04 54° 313° (NW) 21:14:55 29.354- 29.394
ZACube-1 29 Mar 20:56:22 20:57:46 12° 64° (ENE) 20:59:22 437.345
CANX-2 29 Mar 21:00:09 21:04:23 80° 258° (WSW) 21:08:40 2200.000
DOVE 4 29 Mar 21:03:32 21:07:53 80° 77° (ENE) 21:12:06 437.250
BEESAT 2 29 Mar 21:08:00 21:08:57 10° 251° (WSW) 21:09:39 435.950
CUTE 1.7 + AOD 2 29 Mar 21:14:07 21:18:17 61° 259° (W) 21:22:32 437.475
DELFI C3 29 Mar 21:15:48 21:19:15 28° 70° (ENE) 21:22:48 145.870
GOMX 1 29 Mar 21:16:18 21:20:41 49° 261° (W) 21:24:51 467.674
STRAND 1 29 Mar 21:34:11 21:37:12 16° 298° (WNW) 21:40:01 437.568
UKube-1 29 Mar 21:36:30 21:40:04 26° 69° (ENE) 21:43:43 .
AAUSAT CUBESAT 2 29 Mar 21:37:30 21:41:36 55° 260° (W) 21:45:45 437.432
CUSAT 1 29 Mar 21:41:46 21:44:26 35° 283° (WNW) 21:46:52 437.405
HUMSAT D 29 Mar 21:43:14 21:46:07 19° 68° (ENE) 21:49:07 437.325/437.525
SEEDS 29 Mar 21:43:20 21:47:12 34° 264° (W) 21:51:03 437.485
DX 1 29 Mar 21:46:43 21:50:40 35° 70° (ENE) 21:54:40 434.975-435.025
HO-68 29 Mar 22:00:19 22:06:37 32° 265° (W) 22:12:50 435.675
ISS 29 Mar 22:05:09 22:07:27 18° 133° (SE) 22:09:49 145.825
Oscar 11 29 Mar 22:05:10 22:09:25 59° 260° (W) 22:13:43 145.826/435.025
COMPASS 1 29 Mar 22:05:49 22:09:15 23° 266° (W) 22:12:37 437.405
FUNcube-1 29 Mar 22:16:30 22:20:38 89° 257° (WSW) 22:24:49 145.935
CINEMA 3 29 Mar 22:18:43 22:22:24 28° 265° (W) 22:25:59 145.822/145.860
UWE-3 29 Mar 22:21:49 22:25:55 60° 260° (W) 22:30:02 435.000/436.395/437.385
50 SAT 29 Mar 22:24:45 22:28:17 35° 72° (ENE) 22:31:56 437.505
CUBEBUG 2 29 Mar 22:27:50 22:31:47 41° 262° (W) 22:35:44 437.445
VELOX 1 29 Mar 22:27:53 22:32:03 41° 72° (ENE) 22:36:15 145.980
CUBEBUG 1 29 Mar 22:28:05 22:31:11 20° 67° (ENE) 22:34:23 437.445
GONETS M04 29 Mar 22:28:20 22:32:37 14° 305° (NW) 22:36:20
ZACube-1 29 Mar 22:29:36 22:33:42 61° 260° (W) 22:37:49 437.345
AISAT 29 Mar 22:32:37 22:36:53 48° 73° (ENE) 22:41:10 437.250
DANDE 29 Mar 22:35:53 22:36:16 10° 288° (WNW) 22:36:32 436.750
UNISAT 6 29 Mar 22:35:57 22:38:59 18° 91° (E) 22:42:13 437.425
PCSat 29 Mar 22:45:08 22:48:50 19° 42° (NE) 22:52:39 145.827
TIGRISAT 29 Mar 22:45:40 22:49:09 22° 93° (E) 22:52:48 435.000
DELFI C3 29 Mar 22:51:12 22:54:27 22° 267° (W) 22:57:39 145.870
ESTCUBE 1 29 Mar 23:03:14 23:07:38 51° 73° (ENE) 23:12:04 437.505/2401.250
QB50P1 29 Mar 23:09:48 23:12:47 19° 92° (E) 23:15:53 145.935-145.965
DUCHIFAT 1 29 Mar 23:11:24 23:14:25 19° 93° (E) 23:17:32 145.980
RS-15 29 Mar 23:11:31 23:19:51 23° 344° (NNW) 23:28:14 29.354- 29.394
UKube-1 29 Mar 23:12:24 23:16:10 28° 264° (W) 23:19:53 .
ANTELSAT 29 Mar 23:15:30 23:19:55 46° 98° (E) 23:24:26 437.575/2403.000
HUMSAT D 29 Mar 23:17:57 23:21:41 34° 263° (W) 23:25:27 437.325/437.525
DX 1 29 Mar 23:23:43 23:27:02 20° 267° (W) 23:30:16 434.975-435.025
QB50P2 29 Mar 23:24:16 23:27:55 28° 95° (E) 23:31:37 145.880/145.840
ISS 29 Mar 23:40:28 23:43:38 49° 328° (NNW) 23:46:49 145.825
BUGSAT 1 29 Mar 23:49:52 23:53:37 36° 98° (E) 23:57:22 437.445
POPSAT HIP 1 29 Mar 23:52:34 23:56:45 58° 100° (E) 00:00:56 437.405
TISAT 1 29 Mar 23:58:41 00:02:36 38° 72° (ENE) 00:06:32 437.305
50 SAT 30 Mar 00:00:51 00:03:24 16° 268° (W) 00:05:50 437.505
NANOSAT C BR1 30 Mar 00:02:59 00:07:13 77° 103° (ESE) 00:11:26 145.865
CUBEBUG 1 30 Mar 00:03:09 00:07:19 39° 262° (W) 00:11:27 437.445
VELOX 1 30 Mar 00:05:44 00:08:51 18° 268° (W) 00:11:50 145.980
POLYITAN 1 30 Mar 00:07:35 00:11:51 89° 95° (E) 00:16:07 437.675
SPROUT 30 Mar 00:10:19 00:14:32 62° 75° (ENE) 00:18:47 437.525
AISAT 30 Mar 00:11:04 00:13:49 15° 269° (W) 00:16:23 437.250
UNISAT 6 30 Mar 00:11:38 00:16:02 45° 287° (WNW) 00:20:27 437.425
ITUPSAT 1 30 Mar 00:13:12 00:13:57 10° 60° (ENE) 00:14:59 437.325
YUBILEINY 30 Mar 00:21:39 00:29:44 40° 71° (ENE) 00:37:52 435.215
TIGRISAT 30 Mar 00:21:49 00:26:02 37° 289° (WNW) 00:30:16 435.000
PCSat 30 Mar 00:27:30 00:32:57 78° 244° (WSW) 00:38:21 145.827
ESTCUBE 1 30 Mar 00:42:06 00:44:52 15° 270° (W) 00:47:28 437.505/2401.250
QB50P1 30 Mar 00:44:55 00:48:49 35° 289° (WNW) 00:52:39 145.935-145.965
DUCHIFAT 1 30 Mar 00:46:33 00:50:23 34° 289° (WNW) 00:54:12 145.980
ANTELSAT 30 Mar 00:53:12 00:56:26 19° 294° (WNW) 00:59:34 437.575/2403.000
SWISSCUBE 30 Mar 00:57:01 01:01:12 31° 69° (ENE) 01:05:27 437.505
BEESAT 30 Mar 00:59:56 01:04:05 31° 69° (ENE) 01:08:19 436.000
QB50P2 30 Mar 01:00:16 01:03:45 24° 291° (WNW) 01:07:09 145.880/145.840
ISS 30 Mar 01:18:34 01:20:38 15° 348° (NNW) 01:22:40 145.825
BUGSAT 1 30 Mar 01:26:08 01:28:53 17° 293° (WNW) 01:31:30 437.445
RS-15 30 Mar 01:28:55 01:37:32 24° 19° (NNE) 01:46:38 29.354- 29.394
POPSAT HIP 1 30 Mar 01:30:11 01:32:13 13° 296° (WNW) 01:34:04 437.405
TISAT 1 30 Mar 01:35:42 01:38:36 17° 268° (W) 01:41:21 437.305
ITUPSAT 1 30 Mar 01:46:22 01:51:11 87° 74° (ENE) 01:56:03 437.325
SPROUT 30 Mar 01:49:43 01:51:08 11° 272° (W) 01:52:17 437.525
ITAMSAT 1 30 Mar 01:58:21 01:59:35 11° 87° (E) 02:01:11 435.822/435.867
YUBILEINY 30 Mar 02:18:26 02:26:44 46° 271° (W) 02:34:50 435.215
Oscar 19 30 Mar 02:27:52 02:33:04 74° 102° (ESE) 02:38:15 437.125/150
SWISSCUBE 30 Mar 02:34:55 02:39:04 28° 265° (W) 02:43:11 437.505
KKS-1 30 Mar 02:36:14 02:40:33 55° 73° (ENE) 02:44:54 437.445
BEESAT 30 Mar 02:37:46 02:41:56 28° 265° (W) 02:46:03 436.000
SO-50 30 Mar 02:47:22 02:51:17 23° 43° (NE) 02:55:18 436.795
Gurwin Techsat 1B 30 Mar 02:47:52 02:52:27 29° 94° (E) 02:57:05 435.225
ISS 30 Mar 02:56:16 02:58:02 14° 8° (N) 02:59:49 145.825
STARS 30 Mar 03:06:49 03:11:11 76° 75° (ENE) 03:15:34 437.465
ITAMSAT 1 30 Mar 03:34:40 03:39:53 84° 286° (WNW) 03:45:03 435.822/435.867
RS-15 30 Mar 03:41:51 03:53:07 60° 49° (NE) 04:04:56 29.354- 29.394
M-CUBED/EXP-1 PRIME 30 Mar 03:46:16 03:46:34 10° 55° (NE) 03:47:05 437.505
AIST 1 30 Mar 04:03:42 04:07:50 42° 93° (E) 04:12:01
Oscar 19 30 Mar 04:08:57 04:11:53 15° 298° (WNW) 04:14:36 437.125/150
O/OREOS (USA 219) 30 Mar 04:13:35 04:18:08 67° 110° (ESE) 04:22:43 437.305
KKS-1 30 Mar 04:15:18 04:17:37 13° 271° (W) 04:19:42 437.445
MOZHAYETS 4 30 Mar 04:15:42 04:19:53 35° 71° (ENE) 04:24:09
SO-50 30 Mar 04:27:21 04:32:12 54° 242° (WSW) 04:36:59 436.795
Gurwin Techsat 1B 30 Mar 04:27:40 04:32:29 35° 291° (WNW) 04:37:14 435.225
ISS 30 Mar 04:32:10 04:35:09 34° 27° (NNE) 04:38:10 145.825
HORYU 2 30 Mar 04:40:29 04:45:01 89° 102° (ESE) 04:49:32 437.375
GONETS M04 30 Mar 04:42:19 04:44:42 12° 53° (NE) 04:47:47
AO-7 30 Mar 04:43:07 04:51:06 50° 100° (E) 04:59:07 29.400- 29.500
JAS-2 30 Mar 04:50:25 04:58:00 55° 97° (E) 05:04:56 435.910
AUBIESAT-1 30 Mar 04:51:52 04:55:41 42° 66° (ENE) 04:59:53 437.475
M-CUBED/EXP-1 PRIME 30 Mar 05:16:41 05:20:42 89° 251° (WSW) 05:25:07 437.505
ITAMSAT 1 30 Mar 05:17:01 05:18:40 11° 301° (WNW) 05:20:02 435.822/435.867
VERMONT LUNAR 30 Mar 05:30:22 05:33:21 31° 157° (SSE) 05:36:22 437.305
STRAND 1 30 Mar 05:33:34 05:35:40 13° 61° (ENE) 05:38:02 437.568
AIST 1 30 Mar 05:42:51 05:45:47 17° 291° (WNW) 05:48:34
MOZHAYETS 4 30 Mar 05:53:33 05:57:14 23° 267° (W) 06:00:51
RS-15 30 Mar 05:54:41 06:05:22 44° 250° (WSW) 06:16:15 29.354- 29.394
O/OREOS (USA 219) 30 Mar 05:55:30 05:58:07 14° 309° (NW) 06:00:34 437.305
CUTE-I 30 Mar 06:02:32 06:05:08 14° 88° (E) 06:08:02 437.470
Cubesat XI-IV 30 Mar 06:02:51 06:05:34 14° 88° (E) 06:08:33 437.490
CUBESAT XI-V 30 Mar 06:04:34 06:08:55 39° 71° (ENE) 06:13:18 437.345
ISS 30 Mar 06:08:40 06:11:31 28° 224° (SW) 06:14:20 145.825
PHONESAT 2.4 30 Mar 06:16:39 06:19:46 30° 156° (SSE) 06:22:56 2401.200-2431.200
AUBIESAT-1 30 Mar 06:28:06 06:30:50 17° 266° (W) 06:33:35 437.475
PRISM 30 Mar 06:34:55 06:39:06 68° 75° (ENE) 06:43:19 437.425
GONETS M04 30 Mar 06:35:17 06:43:59 61° 77° (ENE) 06:52:44
JAS-2 30 Mar 06:35:54 06:42:39 33° 297° (WNW) 06:48:51 435.910
AO-7 30 Mar 06:36:15 06:43:45 39° 299° (WNW) 06:51:08 29.400- 29.500
VERMONT LUNAR 30 Mar 07:07:30 07:10:50 77° 175° (S) 07:14:12 437.305
STRAND 1 30 Mar 07:09:05 07:14:14 85° 256° (WSW) 07:19:26 437.568
DANDE 30 Mar 07:27:45 07:31:05 24° 76° (ENE) 07:35:20 436.750
CUTE-I 30 Mar 07:40:33 07:45:52 71° 287° (WNW) 07:51:08 437.470
Cubesat XI-IV 30 Mar 07:40:59 07:46:18 70° 287° (WNW) 07:51:35 437.490
CUBESAT XI-V 30 Mar 07:42:52 07:46:31 21° 268° (W) 07:50:04 437.345
PHONESAT 2.4 30 Mar 07:54:22 07:57:54 76° 171° (S) 08:01:26 2401.200-2431.200
CUSAT 1 30 Mar 08:15:22 08:19:45 83° 262° (W) 08:25:39 437.405
GONETS M04 30 Mar 08:33:01 08:40:21 29° 276° (W) 08:47:26
BRITE-PL 30 Mar 08:35:41 08:39:01 23° 94° (E) 08:42:32 437.365/2234.400
VERMONT LUNAR 30 Mar 08:45:10 08:48:31 70° 190° (S) 08:51:52 437.305
CANX-2 30 Mar 08:46:39 08:49:34 18° 91° (E) 08:52:37 2200.000
CUTE 1.7 + AOD 2 30 Mar 09:00:06 09:03:29 23° 93° (E) 09:06:58 437.475
DOVE 4 30 Mar 09:02:52 09:06:06 20° 93° (E) 09:09:33 437.250
DANDE 30 Mar 09:10:35 09:14:19 30° 263° (W) 09:19:02 436.750
GOMX 1 30 Mar 09:17:32 09:21:38 43° 98° (E) 09:25:57 467.674
AAUSAT CUBESAT 2 30 Mar 09:21:19 09:24:40 23° 93° (E) 09:28:05 437.432
BEESAT 2 30 Mar 09:23:19 09:25:16 13° 110° (ESE) 09:27:26 435.950
HO-68 30 Mar 09:26:50 09:33:50 52° 100° (E) 09:40:49 435.675
SEEDS 30 Mar 09:27:37 09:31:37 38° 97° (E) 09:35:38 437.485
PHONESAT 2.4 30 Mar 09:32:41 09:36:13 73° 189° (S) 09:39:45 2401.200-2431.200
UNISAT 6 30 Mar 09:36:00 09:38:23 15° 65° (ENE) 09:40:58 437.425
TIGRISAT 30 Mar 09:45:17 09:48:09 18° 66° (ENE) 09:51:11 435.000
COMPASS 1 30 Mar 09:48:35 09:52:46 54° 99° (E) 09:56:56 437.405
Oscar 11 30 Mar 09:53:06 09:56:40 25° 94° (E) 10:00:18 145.826/435.025
BEESAT 3 30 Mar 09:57:19 10:01:05 37° 116° (ESE) 10:04:56 437.485
QB50P1 30 Mar 10:03:26 10:05:50 15° 66° (ENE) 10:08:23 145.935-145.965
DUCHIFAT 1 30 Mar 10:04:45 10:07:09 15° 66° (ENE) 10:09:43 145.980
FUNcube-1 30 Mar 10:05:46 10:08:44 18° 92° (E) 10:11:52 145.935
UWE-3 30 Mar 10:11:51 10:15:34 26° 95° (E) 10:19:25 435.000/436.395/437.385
CINEMA 3 30 Mar 10:12:22 10:16:46 60° 100° (E) 10:21:21 145.822/145.860
BRITE-PL 30 Mar 10:13:56 10:17:37 29° 289° (WNW) 10:21:22 437.365/2234.400
ANTELSAT 30 Mar 10:14:50 10:18:47 38° 71° (ENE) 10:22:49 437.575/2403.000
QB50P2 30 Mar 10:17:40 10:20:53 22° 68° (ENE) 10:24:12 145.880/145.840
CUBEBUG 2 30 Mar 10:18:29 10:22:37 38° 97° (E) 10:26:53 437.445
ZACube-1 30 Mar 10:18:30 10:22:07 25° 94° (E) 10:25:52 437.345
CANX-2 30 Mar 10:21:40 10:25:42 39° 288° (WNW) 10:29:42 2200.000
VERMONT LUNAR 30 Mar 10:23:07 10:25:57 25° 205° (SSW) 10:28:45 437.305
DELFI C3 30 Mar 10:30:07 10:34:07 48° 99° (E) 10:38:05 145.870
CUTE 1.7 + AOD 2 30 Mar 10:35:39 10:39:28 31° 289° (WNW) 10:43:14 437.475
AIST 2 30 Mar 10:38:41 10:42:23 30° 115° (ESE) 10:46:12 435.215
DOVE 4 30 Mar 10:40:01 10:44:00 36° 288° (WNW) 10:48:08 437.250
BUGSAT 1 30 Mar 10:40:11 10:43:39 27° 70° (ENE) 10:47:08 437.445
POPSAT HIP 1 30 Mar 10:45:22 10:49:21 42° 72° (ENE) 10:53:21 437.405
NANOSAT C BR1 30 Mar 10:55:25 10:59:32 55° 74° (ENE) 11:03:40 145.865
AAUSAT CUBESAT 2 30 Mar 10:56:37 11:00:21 29° 289° (WNW) 11:03:59 437.432
GOMX 1 30 Mar 10:56:41 10:59:34 17° 292° (WNW) 11:02:23 467.674
BEESAT 2 30 Mar 10:58:57 11:03:00 56° 305° (NW) 11:07:07 435.950
ESTCUBE 1 30 Mar 10:58:57 10:59:47 11° 87° (E) 11:00:55 437.505/2401.250
UKube-1 30 Mar 10:59:29 11:03:40 46° 100° (E) 11:07:50 .
POLYITAN 1 30 Mar 11:00:28 11:04:39 65° 75° (ENE) 11:08:50 437.675
HUMSAT D 30 Mar 11:01:52 11:05:48 36° 97° (E) 11:09:47 437.325/437.525
SEEDS 30 Mar 11:04:07 11:07:11 19° 293° (WNW) 11:10:09 437.485
UNISAT 6 30 Mar 11:10:41 11:14:49 49° 261° (W) 11:19:02 437.425
DX 1 30 Mar 11:10:51 11:15:11 67° 102° (ESE) 11:19:30 434.975-435.025
PHONESAT 2.4 30 Mar 11:11:14 11:14:18 27° 205° (SSW) 11:17:21 2401.200-2431.200
HO-68 30 Mar 11:15:04 11:21:19 32° 298° (WNW) 11:27:24 435.675
TIGRISAT 30 Mar 11:20:40 11:24:40 39° 262° (W) 11:28:43 435.000
COMPASS 1 30 Mar 11:25:48 11:28:04 14° 295° (WNW) 11:30:10 437.405
Oscar 11 30 Mar 11:29:03 11:32:52 29° 290° (WNW) 11:36:36 145.826/435.025
BEESAT 3 30 Mar 11:35:56 11:39:16 23° 314° (NW) 11:42:35 437.485
50 SAT 30 Mar 11:37:01 11:41:01 60° 100° (E) 11:45:02 437.505
QB50P1 30 Mar 11:37:18 11:41:23 47° 261° (W) 11:45:28 145.935-145.965
DUCHIFAT 1 30 Mar 11:38:36 11:42:40 46° 261° (W) 11:46:44 145.980
FUNcube-1 30 Mar 11:41:08 11:45:17 41° 287° (WNW) 11:49:28 145.935
UWE-3 30 Mar 11:48:16 11:52:05 29° 290° (WNW) 11:55:56 435.000/436.395/437.385
CINEMA 3 30 Mar 11:51:16 11:53:37 14° 294° (WNW) 11:55:48 145.822/145.860
CUBEBUG 1 30 Mar 11:52:08 11:56:08 36° 97° (E) 12:00:08 437.445
ANTELSAT 30 Mar 11:52:48 11:55:49 18° 269° (W) 11:58:41 437.575/2403.000
QB50P2 30 Mar 11:52:52 11:56:40 31° 264° (W) 12:00:25 145.880/145.840
ZACube-1 30 Mar 11:54:38 11:58:30 30° 290° (WNW) 12:02:21 437.345
VELOX 1 30 Mar 11:54:45 11:59:10 87° 103° (ESE) 12:03:35 145.980
CUBEBUG 2 30 Mar 11:55:46 11:59:08 21° 292° (WNW) 12:02:27 437.445
SPROUT 30 Mar 11:59:45 12:00:43 11° 88° (E) 12:01:57 437.525
AISAT 30 Mar 11:59:52 12:04:18 80° 284° (WNW) 12:08:42 437.250
DELFI C3 30 Mar 12:06:38 12:08:55 14° 294° (WNW) 12:11:03 145.870
Oscar 19 30 Mar 12:08:41 12:11:00 14° 61° (ENE) 12:13:34 437.125/150
BUGSAT 1 30 Mar 12:15:39 12:19:07 24° 265° (W) 12:22:28 437.445
AIST 2 30 Mar 12:17:14 12:20:59 28° 312° (NW) 12:24:44 435.215
POPSAT HIP 1 30 Mar 12:22:50 12:25:30 16° 269° (W) 12:28:00 437.405
ESTCUBE 1 30 Mar 12:32:45 12:37:17 71° 284° (WNW) 12:41:45 437.505/2401.250
NANOSAT C BR1 30 Mar 12:34:02 12:35:49 12° 271° (W) 12:37:23 145.865
UKube-1 30 Mar 12:36:43 12:39:29 16° 295° (WNW) 12:42:06 .
HUMSAT D 30 Mar 12:38:13 12:41:22 20° 292° (WNW) 12:44:25 437.325/437.525
POLYITAN 1 30 Mar 12:40:30 12:41:07 10° 272° (W) 12:41:26 437.675
O/OREOS (USA 219) 30 Mar 12:45:56 12:48:23 14° 51° (NE) 12:50:58 437.305
DX 1 30 Mar 12:49:11 12:50:57 12° 297° (WNW) 12:52:31 434.975-435.025
50 SAT 30 Mar 13:14:00 13:15:30 12° 295° (WNW) 13:16:48 437.505
ITAMSAT 1 30 Mar 13:15:08 13:18:39 19° 64° (ENE) 13:22:20 435.822/435.867
TISAT 1 30 Mar 13:18:47 13:22:59 74° 101° (ESE) 13:27:11 437.305
YUBILEINY 30 Mar 13:22:15 13:30:23 45° 89° (E) 13:38:41 435.215
PCSat 30 Mar 13:29:03 13:31:21 13° 105° (ESE) 13:33:58 145.827
CUBEBUG 1 30 Mar 13:29:05 13:32:18 20° 293° (WNW) 13:35:24 437.445
SPROUT 30 Mar 13:33:04 13:37:20 63° 285° (WNW) 13:41:34 437.525
Oscar 19 30 Mar 13:44:39 13:49:46 80° 257° (WSW) 13:54:56 437.125/150
ITUPSAT 1 30 Mar 13:47:55 13:51:38 23° 93° (E) 13:55:27 437.325
AO-7 30 Mar 13:54:17 13:58:26 16° 48° (NE) 14:03:00 29.400- 29.500
Gurwin Techsat 1B 30 Mar 14:08:42 14:13:44 46° 71° (ENE) 14:18:50 435.225
AIST 1 30 Mar 14:13:28 14:14:23 11° 66° (ENE) 14:15:32
O/OREOS (USA 219) 30 Mar 14:23:49 14:28:21 65° 251° (WSW) 14:32:48 437.305
KKS-1 30 Mar 14:30:16 14:31:05 11° 88° (E) 14:32:11 437.445
SWISSCUBE 30 Mar 14:34:33 14:39:21 76° 103° (ESE) 14:44:07 437.505
BEESAT 30 Mar 14:37:18 14:42:07 75° 103° (ESE) 14:46:53 436.000
ITAMSAT 1 30 Mar 14:52:38 14:57:46 56° 259° (W) 15:02:55 435.822/435.867
TISAT 1 30 Mar 14:57:28 14:58:16 10° 297° (WNW) 14:58:50 437.305
STARS 30 Mar 14:58:20 15:00:35 14° 90° (E) 15:03:03 437.465
JAS-2 30 Mar 15:02:23 15:07:56 26° 60° (ENE) 15:14:04 435.910
PCSat 30 Mar 15:08:44 15:14:09 81° 299° (WNW) 15:19:38 145.827
YUBILEINY 30 Mar 15:19:09 15:27:22 40° 289° (WNW) 15:35:30 435.215
ITUPSAT 1 30 Mar 15:25:15 15:29:41 38° 290° (WNW) 15:34:04 437.325
HORYU 2 30 Mar 15:38:34 15:42:59 81° 77° (ENE) 15:47:28 437.375
AO-7 30 Mar 15:41:42 15:49:52 66° 68° (ENE) 15:58:05 29.400- 29.500
AIST 1 30 Mar 15:48:21 15:52:38 65° 265° (W) 15:56:51
Gurwin Techsat 1B 30 Mar 15:49:50 15:53:59 22° 268° (W) 15:58:02 435.225
KKS-1 30 Mar 16:03:51 16:08:18 70° 286° (WNW) 16:12:43 437.445
SWISSCUBE 30 Mar 16:14:28 16:16:40 13° 298° (WNW) 16:18:37 437.505
BEESAT 30 Mar 16:17:09 16:19:25 13° 298° (WNW) 16:21:26 436.000
STARS 30 Mar 16:33:08 16:37:26 52° 287° (WNW) 16:41:42 437.465
